DW8507 Weather Reports


time (UTC)temp
C
wind
direction
speed
KPH
gust
KPH
rain 1hr
cm
rain 24hr
cm
rain mn
cm
humidity
%
barometer
mb
20260505195556 13 0 0.0 0.0 0.00 0.00 0.00 65 1007.2
20260505194656 13 0 0.0 0.0 0.00 0.00 0.00 65 1007.0
20260505193756 13 0 0.0 0.0 0.00 0.00 0.00 65 1006.9
20260505192858 13 0 0.0 0.0 0.00 0.00 0.00 65 1006.7
20260505191957 13 0 0.0 0.0 0.00 0.00 0.00 65 1006.6
20260505191058 13 0 0.0 0.0 0.00 0.00 0.00 65 1006.6
20260505190409 14 0 0.0 0.0 0.00 0.00 0.00 65 1006.4
20260505185257 14 0 0.0 0.0 0.00 0.00 0.00 65 1006.6
20260505184356 14 0 0.0 0.0 0.00 0.00 0.00 64 1006.5
20260505183457 14 0 0.0 0.0 0.00 0.00 0.00 63 1006.3
20260505182808 14 0 0.0 0.0 0.00 0.00 0.00 63 1006.4
20260505181658 15 0 0.0 0.0 0.00 0.00 0.00 63 1006.4
20260505181008 15 0 0.0 0.0 0.00 0.00 0.00 63 1006.4
20260505175856 15 0 0.0 0.0 0.00 0.00 0.00 62 1006.5
20260505175209 15 0 0.0 0.0 0.00 0.00 0.00 62 1006.5
20260505174057 15 0 0.0 0.0 0.00 0.00 0.00 63 1006.5
20260505173158 15 0 0.0 0.0 0.00 0.00 0.00 63 1006.5
20260505172258 15 0 0.0 0.0 0.00 0.00 0.00 62 1006.5
20260505171356 15 0 0.0 0.0 0.00 0.00 0.00 62 1006.5
20260505170458 16 0 0.0 0.0 0.00 0.00 0.00 62 1006.5
20260505165557 16 0 0.0 0.0 0.00 0.00 0.00 62 1006.6
20260505164656 16 0 0.0 0.0 0.00 0.00 0.00 62 1006.5
20260505163757 16 0 0.0 0.0 0.00 0.00 0.00 61 1006.4
20260505162856 16 0 0.0 0.0 0.00 0.00 0.00 61 1006.6
20260505162002 16 0 0.0 0.0 0.00 0.00 0.00 61 1006.6
20260505161309 16 0 0.0 0.0 0.00 0.00 0.00 61 1006.4
20260505160157 16 0 0.0 0.0 0.00 0.00 0.00 61 1006.5
20260505152557 16 0 0.0 0.0 0.00 0.00 0.00 61 1006.5
20260505151657 16 0 0.0 0.0 0.00 0.00 0.00 61 1006.5
20260505150756 16 0 0.0 0.0 0.00 0.00 0.00 62 1006.5
20260505140458 16 0 0.0 0.0 0.00 0.00 0.00 65 1007.0
20260505130158 16 0 0.0 0.0 0.00 0.00 0.00 68 1007.3
20260505124357 15 0 0.0 0.0 0.00 0.00 0.00 69 1007.4
20260505123456 15 0 0.0 0.0 0.00 0.00 0.00 70 1007.3
20260505122807 15 0 0.0 0.0 0.00 0.00 0.00 70 1007.2
20260505121909 15 0 0.0 0.0 0.00 0.00 0.00 70 1007.3
20260505120757 15 0 0.0 0.0 0.00 0.00 0.00 70 1007.3
20260505120109 15 0 0.0 0.0 0.00 0.00 0.00 69 1007.4
20260505114956 15 0 0.0 0.0 0.00 0.00 0.00 70 1007.4
20260505114309 15 0 0.0 0.0 0.00 0.00 0.00 70 1007.2
20260505113156 15 0 0.0 0.0 0.00 0.00 0.00 70 1007.4
20260505112258 15 0 0.0 0.0 0.00 0.00 0.00 69 1007.6
20260505111356 15 0 0.0 0.0 0.00 0.00 0.00 68 1007.5
20260505110708 15 0 0.0 0.0 0.00 0.00 0.00 68 1007.6
20260505101956 15 0 0.0 0.0 0.00 0.00 0.00 70 1008.1
20260505101056 15 0 0.0 0.0 0.00 0.00 0.00 70 1008.1
20260505100158 15 0 0.0 0.0 0.00 0.00 0.00 70 1008.0
20260505095256 15 0 0.0 0.0 0.00 0.00 0.00 70 1008.4
20260505094358 15 0 0.0 0.0 0.00 0.00 0.00 71 1008.0
20260505093456 15 0 0.0 0.0 0.00 0.00 0.00 71 1008.2
20260505092558 15 0 0.0 0.0 0.00 0.00 0.00 72 1008.1
20260505091656 15 0 0.0 0.0 0.00 0.00 0.00 74 1008.2
20260505090756 14 0 0.0 0.0 0.00 0.00 0.00 77 1008.2
20260505085856 13 0 0.0 0.0 0.00 0.00 0.00 78 1008.2
20260505085208 13 0 0.0 0.0 0.00 0.00 0.00 79 1008.4
20260505084057 12 0 0.0 0.0 0.00 0.00 0.00 80 1008.6
20260505083157 12 0 0.0 0.0 0.00 0.00 0.00 81 1008.6
20260505082256 12 0 0.0 0.0 0.00 0.00 0.00 85 1008.5
20260505081358 12 0 0.0 0.0 0.00 0.00 0.00 87 1008.4
20260505080458 12 0 0.0 0.0 0.00 0.00 0.00 91 1008.5
20260505075557 12 0 0.0 0.0 0.00 0.00 0.00 93 1008.5
20260505074656 11 0 0.0 0.0 0.00 0.00 0.00 94 1008.7
20260505073757 11 0 0.0 0.0 0.00 0.00 0.00 94 1008.7
20260505072856 11 0 0.0 0.0 0.00 0.00 0.00 95 1008.7
20260505072207 10 0 0.0 0.0 0.00 0.00 0.00 95 1008.5
20260505071056 10 0 0.0 0.0 0.00 0.00 0.00 95 1008.8
20260505070156 10 0 0.0 0.0 0.00 0.00 0.00 95 1008.7
20260505065256 10 0 0.0 0.0 0.00 0.00 0.00 95 1008.9
20260505064356 10 0 0.0 0.0 0.00 0.00 0.00 95 1008.7
20260505063456 10 0 0.0 0.0 0.00 0.00 0.00 95 1008.7
20260505062556 10 0 0.0 0.0 0.00 0.00 0.00 95 1009.0
20260505061656 9 0 0.0 0.0 0.00 0.00 0.00 94 1008.9
20260505060756 9 0 0.0 0.0 0.00 0.00 0.00 94 1008.7
20260505055858 9 0 0.0 0.0 0.00 0.00 0.00 94 1008.8
20260505054956 9 0 0.0 0.0 0.00 0.00 0.00 94 1008.8
20260505054056 9 0 0.0 0.0 0.00 0.00 0.00 93 1008.9
20260505053158 8 0 0.0 0.0 0.00 0.00 0.00 93 1008.7
20260505052256 8 0 0.0 0.0 0.00 0.00 0.00 93 1008.7
20260505051358 8 0 0.0 0.0 0.00 0.00 0.00 93 1008.8
20260505050707 8 0 0.0 0.0 0.00 0.00 0.00 93 1008.8
20260505041056 8 0 0.0 0.0 0.00 0.00 0.00 91 1009.0
20260505040156 8 0 0.0 0.0 0.00 0.00 0.00 91 1008.9
20260505035258 8 0 0.0 0.0 0.00 0.00 0.00 90 1009.1
20260505034608 8 0 0.0 0.0 0.00 0.00 0.00 90 1009.2
20260505033456 8 0 0.0 0.0 0.00 0.00 0.00 90 1008.8
20260505032556 8 0 0.0 0.0 0.00 0.00 0.00 90 1008.8
20260505031656 8 0 0.0 0.0 0.00 0.00 0.00 90 1008.8
20260505031007 8 0 0.0 0.0 0.00 0.00 0.00 90 1008.5
20260505030110 8 0 0.0 0.0 0.00 0.00 0.00 90 1008.7
20260505025207 9 0 0.0 0.0 0.00 0.00 0.00 90 1008.7
20260505024056 9 0 0.0 0.0 0.00 0.00 0.00 90 1008.9
20260505023407 9 0 0.0 0.0 0.00 0.00 0.00 90 1009.0
20260505022256 9 0 0.0 0.0 0.00 0.00 0.00 90 1009.0
20260505021358 9 0 0.0 0.0 0.00 0.00 0.00 90 1008.8
20260505020456 9 0 0.0 0.0 0.00 0.00 0.00 90 1008.5
20260505015558 10 0 0.0 0.0 0.00 0.00 0.00 90 1008.9
20260505014657 10 0 0.0 0.0 0.00 0.00 0.00 90 1009.0
20260505013756 10 0 0.0 0.0 0.00 0.00 0.00 90 1009.0
20260505012856 10 0 0.0 0.0 0.00 0.00 0.00 90 1009.1
20260505011956 10 0 0.0 0.0 0.00 0.00 0.00 89 1009.1
20260505011058 10 0 0.0 0.0 0.00 0.00 0.00 89 1009.2
20260505010156 10 0 0.0 0.0 0.00 0.00 0.00 88 1009.2
20260505005256 10 0 0.0 0.0 0.00 0.00 0.00 88 1009.1
20260505004358 11 0 0.0 0.0 0.00 0.00 0.00 88 1009.3
20260505003456 11 0 0.0 0.0 0.00 0.00 0.00 88 1009.3
20260505002556 11 0 0.0 0.0 0.00 0.00 0.00 88 1009.2
20260505001907 11 0 0.0 0.0 0.00 0.00 0.00 88 1009.2
20260505000756 11 0 0.0 0.0 0.00 0.00 0.00 88 1009.4
20260504235856 11 0 0.0 0.0 0.00 0.00 0.00 87 1009.5
20260504234956 11 0 0.0 0.0 0.00 0.00 0.00 87 1009.5
20260504234058 11 0 0.0 0.0 0.00 0.00 0.00 86 1009.5
20260504233408 11 0 0.0 0.0 0.00 0.00 0.00 86 1009.4
20260504232256 11 0 0.0 0.0 0.00 0.00 0.00 86 1009.4
20260504231356 11 0 0.0 0.0 0.00 0.00 0.00 85 1009.6
20260504230456 12 0 0.0 0.0 0.00 0.00 0.00 85 1009.6
20260504225556 12 0 0.0 0.0 0.00 0.00 0.00 85 1009.5
20260504224706 12 0 0.0 0.0 0.00 0.00 0.00 85 1009.5
20260504223757 12 0 0.0 0.0 0.00 0.00 0.00 82 1009.4
20260504222856 12 0 0.0 0.0 0.00 0.00 0.00 81 1009.8
20260504221956 12 0 0.0 0.0 0.00 0.00 0.00 81 1009.5
20260504221056 12 0 0.0 0.0 0.00 0.00 0.00 81 1009.4
20260504220156 12 0 0.0 0.0 0.00 0.00 0.00 81 1009.8
20260504215258 12 0 0.0 0.0 0.00 0.00 0.00 81 1009.8
20260504214356 12 0 0.0 0.0 0.00 0.00 0.00 81 1009.6
20260504213456 12 0 0.0 0.0 0.00 0.00 0.00 81 1009.5
20260504212601 13 0 0.0 0.0 0.00 0.00 0.00 81 1009.8
20260504211658 13 0 0.0 0.0 0.00 0.00 0.00 81 1009.9
20260504210756 13 0 0.0 0.0 0.00 0.00 0.00 81 1009.6
20260504205856 13 0 0.0 0.0 0.00 0.00 0.00 81 1009.5
20260504204956 13 0 0.0 0.0 0.00 0.00 0.00 81 1009.8
20260504204308 13 0 0.0 0.0 0.00 0.00 0.00 80 1009.8
20260504203156 13 0 0.0 0.0 0.00 0.00 0.00 80 1009.5
20260504202256 13 0 0.0 0.0 0.00 0.00 0.00 80 1009.5
20260504201610 13 0 0.0 0.0 0.00 0.00 0.00 80 1009.7
20260504200458 13 0 0.0 0.0 0.00 0.00 0.00 80 1009.6